Weather History for Hyannis, MA

Change the Weather History Date:

Monday, September 16, 2013

  Actual Average Record
Temperature  
Mean Temperature 60 °F -  
Max Temperature 66 °F 70 °F 82 °F (1952)
Min Temperature 55 °F 53 °F 35 °F (1964)
Degree Days  
Heating Degree Days 6    
Growing Degree Days 10 (Base 50)    
Moisture  
Dew Point 53 °F    
Average Humidity 78    
Maximum Humidity 93    
Minimum Humidity 56    
Precipitation  
Precipitation 0.02 in - - ()
Sea Level Pressure  
Sea Level Pressure 30.07 in    
Wind  
Wind Speed 5 mph (NW)    
Max Wind Speed 21 mph    
Max Gust Speed 33 mph    
Visibility 10 miles    
Events Rain    
Averages and records for this station are not official NWS values.
T = Trace of Precipitation, MM = Missing Value Source: NWS Daily Summary

Daily Weather History Graph

Daily Weather History Graph

Search for Another Location

Airport:

Trip Planner

Search our weather history database for the weather conditions in past years. The results will help you decide how hot, cold, wet, or windy it might be!

Date:

Astronomy

Sep. 16, 2013 Rise Set
Actual Time 6:22 AM EDT 6:48 PM EDT
Civil Twilight 5:54 AM EDT 7:16 PM EDT
Nautical Twilight 5:21 AM EDT 7:48 PM EDT
Astronomical Twilight 4:48 AM EDT 8:22 PM EDT
Moon 4:56 PM EDT (9/16) 3:02 AM EDT (9/16)
Length of Visible Light 13h 21m
Length of Day
12h 25m
Waxing Gibbous, 90% of the Moon is Illuminated
Sep 16
Waxing Gibbous
Sep 19
Full
Sep 26
Last Quarter
Oct 4
New
Oct 11
First Quarter

Hourly Weather History & Observations

Time (EDT) Temp. Dew Point Humidity Pressure Visibility Wind Dir Wind Speed Gust Speed Precip Events Conditions
12:56 AM 57.0 °F 54.0 °F 89% 30.06 in 10.0 mi WSW 4.6 mph - N/A   Clear
1:56 AM 55.9 °F 54.0 °F 93% 30.06 in 10.0 mi Calm Calm - N/A   Clear
2:56 AM 55.0 °F 53.1 °F 93% 30.04 in 10.0 mi Calm Calm - N/A   Clear
3:56 AM 55.0 °F 53.1 °F 93% 30.04 in 10.0 mi Calm Calm - N/A   Clear
4:56 AM 60.1 °F 57.0 °F 90% 30.03 in 10.0 mi WSW 6.9 mph - N/A   Clear
5:56 AM 59.0 °F 57.0 °F 93% 30.04 in 10.0 mi SW 4.6 mph - N/A   Clear
6:56 AM 60.1 °F 57.0 °F 90% 30.04 in 10.0 mi WSW 3.5 mph - N/A   Clear
7:56 AM 64.0 °F 57.9 °F 80% 30.04 in 10.0 mi West 9.2 mph - N/A   Clear
8:56 AM 64.0 °F 55.9 °F 75% 30.04 in 10.0 mi West 3.5 mph - N/A   Clear
9:56 AM 64.9 °F 54.0 °F 68% 30.06 in 10.0 mi NW 6.9 mph - N/A   Mostly Cloudy
10:56 AM 63.0 °F 52.0 °F 67% 30.05 in 10.0 mi North 10.4 mph 17.3 mph N/A   Overcast
11:56 AM 63.0 °F 52.0 °F 67% 30.04 in 10.0 mi North 9.2 mph - N/A   Overcast
12:56 PM 60.1 °F 55.0 °F 83% 30.05 in 10.0 mi North 4.6 mph - 0.00 in Rain Light Rain
1:56 PM 59.0 °F 55.0 °F 87% 30.04 in 10.0 mi Calm Calm - 0.02 in Rain Light Rain
2:56 PM 60.1 °F 54.0 °F 80% 30.02 in 10.0 mi Calm Calm - 0.00 in   Overcast
3:56 PM 63.0 °F 55.9 °F 78% 30.02 in 10.0 mi Calm Calm - N/A   Overcast
4:56 PM 64.9 °F 48.9 °F 56% 30.03 in 10.0 mi NW 3.5 mph - N/A   Clear
5:56 PM 63.0 °F 53.1 °F 70% 30.04 in 10.0 mi Calm Calm - N/A   Overcast
6:56 PM 60.1 °F 55.9 °F 86% 30.05 in 10.0 mi Calm Calm - N/A   Overcast
7:56 PM 60.1 °F 54.0 °F 80% 30.07 in 10.0 mi NNW 4.6 mph - N/A   Mostly Cloudy
8:56 PM 61.0 °F 55.0 °F 81% 30.10 in 10.0 mi North 11.5 mph 19.6 mph N/A   Mostly Cloudy
9:44 PM 60.8 °F 48.2 °F 63% 30.11 in 10.0 mi NNW 11.5 mph 24.2 mph N/A   Mostly Cloudy
9:56 PM 59.0 °F 50.0 °F 72% 30.12 in 10.0 mi North 16.1 mph 27.6 mph 0.00 in Rain Light Rain
10:56 PM 57.9 °F 48.0 °F 70% 30.15 in 10.0 mi NNW 15.0 mph 25.3 mph 0.00 in   Overcast
11:08 PM 57.2 °F 50.0 °F 77% 30.16 in 10.0 mi NNE 19.6 mph 33.4 mph N/A   Overcast
11:37 PM 57.2 °F 46.4 °F 67% 30.17 in 10.0 mi North 20.7 mph 28.8 mph N/A   Overcast
11:56 PM 57.0 °F 46.0 °F 67% 30.17 in 10.0 mi North 16.1 mph 29.9 mph N/A   Overcast